Hourly Data Report for June 26, 2021

WRIGLEY A
NORTHWEST TERRITORIES
Current Station Operator: NAVCAN

63°12'35.000" N
123°26'12.000" W
149.70 m
2204005
YWY

Download Data

Hourly Data (June 2021)
Hourly Data Report for June 26, 2021
TIME
LST
Temp Definition
°C
Dew Point Definition
°C
Rel Hum Definition
%
Precip. Amount Definition
mm

Wind Dir Definition
10's deg

Wind Spd Definition
km/h
Visibility Definition
km
Stn Press Definition
kPa
Hmdx Definition


Wind Chill Definition


Weather Definition


00:00 19.8 13.2 65 LegendMM 30 10 LegendMM 99.24     LegendNANA
01:00 19.3 13.4 68 LegendMM 27 6 LegendMM 99.28     LegendNANA
02:00 18.9 13.6 71 LegendMM 35 4 LegendMM 99.44     LegendNANA
03:00 18.6 13.4 72 LegendMM 36 19 LegendMM 99.60     LegendNANA
04:00 15.8 13.3 85 LegendMM 31 20 LegendMM 99.71     LegendNANA
05:00 16.1 13.1 82 LegendMM 31 10 LegendMM 99.85     LegendNANA
06:00 16.8 13.2 79 LegendMM 28 6 LegendMM 99.91     LegendNANA
07:00 19.4 13.5 68 LegendMM 2 4 LegendMM 100.01     LegendNANA
08:00 20.2 13.6 65 LegendMM 30 5 LegendMM 100.04     LegendNANA
09:00 21.4 13.3 59 LegendMM 28 9 LegendMM 100.10     LegendNANA
10:00 23.2 12.8 52 LegendMM 29 12 LegendMM 100.14 26   LegendNANA
11:00 25.3 11.6 42 LegendMM 30 13 LegendMM 100.12 27   LegendNANA
12:00 26.1 12.6 42 LegendMM 30 17 LegendMM 100.14 29   LegendNANA
13:00 27.3 10.9 35 LegendMM 30 10 LegendMM 100.13 29   LegendNANA
14:00 27.8 9.0 30 LegendMM 22 5 LegendMM 100.09 29   LegendNANA
15:00 28.8 6.4 24 LegendMM 19 6 LegendMM 100.07 29   LegendNANA
16:00 29.4 6.2 23 LegendMM 16 10 LegendMM 100.03 29   LegendNANA
17:00 29.4 7.7 25 LegendMM 15 10 LegendMM 99.97 30   LegendNANA
18:00 29.0 6.8 24 LegendMM 15 18 LegendMM 99.90 29   LegendNANA
19:00 29.1 8.1 26 LegendMM 15 12 LegendMM 99.82 30   LegendNANA
20:00 28.1 8.5 29 LegendMM 16 10 LegendMM 99.77 29   LegendNANA
21:00 26.6 9.7 34 LegendMM 13 7 LegendMM 99.74 28   LegendNANA
22:00 26.2 10.1 36 LegendMM 12 11 LegendMM 99.71 28   LegendNANA
23:00 25.5 10.7 39 LegendMM 14 17 LegendMM 99.70 27   LegendNANA

Notes on Data Quality.

Legend

  • E = Estimated
  • M = Missing
  • NA = Not Available*
  • [empty] = Indicates an unobserved value
Date modified: